This is the latest recevied weather packets stored in our database for station/object N8XHB. If no packets are shown the sender has not sent any weather packets the latest 10 day(s).
| Time | Temp. | Humidity | Pressure | Rain* | Wind** | Luminosity | Snow |
|---|---|---|---|---|---|---|---|
| 1777906308 | 20° C | 45% | 1002.8 hPa | 0 mm | - | 680 W/m² | - |
| 1777906006 | 19.44° C | 46% | 1002.8 hPa | 0 mm | - | 665 W/m² | - |
| 1777905702 | 20° C | 47% | 1003.2 hPa | 0 mm | - | 650 W/m² | - |
| 1777905398 | 19.44° C | 47% | 1002.9 hPa | 0 mm | - | 634 W/m² | - |
| 1777905097 | 19.44° C | 46% | 1003.1 hPa | 0 mm | - | 619 W/m² | - |
| 1777904793 | 18.89° C | 48% | 1003.1 hPa | 0 mm | - | 599 W/m² | - |
| 1777904491 | 18.33° C | 49% | 1003.2 hPa | 0 mm | - | 582 W/m² | - |
| 1777904187 | 18.89° C | 49% | 1003.4 hPa | 0 mm | - | 520 W/m² | - |
| 1777903884 | 17.78° C | 51% | 1003.3 hPa | 0 mm | - | 506 W/m² | - |
| 1777903581 | 17.78° C | 52% | 1003.4 hPa | 0 mm | - | 511 W/m² | - |
| 1777903277 | 17.78° C | 52% | 1003.5 hPa | 0 mm | - | 511 W/m² | - |
| 1777902974 | 17.78° C | 52% | 1003.3 hPa | 0 mm | - | 496 W/m² | - |
| 1777902670 | 17.22° C | 54% | 1003.4 hPa | 0 mm | - | 482 W/m² | - |
| 1777902368 | 16.67° C | 55% | 1003.8 hPa | 0 mm | - | 461 W/m² | - |
| 1777902064 | 16.67° C | 55% | 1003.7 hPa | 0 mm | - | 445 W/m² | - |
| 1777901763 | 16.67° C | 55% | 1003.6 hPa | 0 mm | - | 376 W/m² | - |
| 1777901460 | 16.67° C | 56% | 1003.9 hPa | 0 mm | - | 413 W/m² | - |
| 1777901157 | 16.11° C | 57% | 1003.7 hPa | 0 mm | - | 393 W/m² | - |
| 1777900855 | 16.11° C | 57% | 1003.9 hPa | 0 mm | - | 381 W/m² | - |
| 1777900552 | 15.56° C | 58% | 1003.7 hPa | 0 mm | - | 360 W/m² | - |
| 1777900249 | 15.56° C | 59% | 1003.9 hPa | 0 mm | - | 347 W/m² | - |
| 1777899945 | 15° C | 59% | 1004.2 hPa | 0 mm | - | 328 W/m² | - |
| 1777899642 | 15° C | 60% | 1004 hPa | 0 mm | - | 311 W/m² | - |
| 1777899340 | 15° C | 61% | 1003.9 hPa | 0 mm | - | 297 W/m² | - |
| 1777899037 | 14.44° C | 63% | 1003.9 hPa | 0 mm | - | 281 W/m² | - |
* Rain latest hour (hover to see other rain measurements)
** Current wind speed in m/s (hover to see current wind gust speed)